Location: ???
(35.5616°N, 139.7977°E)
Time: 20:38:14
(UTC+00:00)

Cosmos 1447 Rocket - Pass Details

Date: 17 November 2025
Orbit: 954 x 994 km, 82.9° (Epoch: 08 December)

Event Time Altitude Azimuth Distance (km) Brightness Sun altitude
Rises 19:13:00 0° 186° (S) 3,650 7.5 -25.6°
Reaches altitude 10° 19:15:29 10° 187° (S) 2,713 6.8 -25.1°
Maximum altitude 19:21:43 84° 276° (W) 992 4.4 -23.8°
Drops below altitude 10° 19:28:04 10° 5° (N) 2,755 6.8 -22.5°
Sets 19:30:36 0° 6° (N) 3,711 7.5 -22.0°
